Location: Krakow
(50.0830°N, 19.9170°E)
Time: 06:38:35
(UTC+01:00)

Vanguard 2 - Pass Details

Date: 17 December 2023
Orbit: 553 x 2919 km, 32.9° (Epoch: 24 February)

Event Time Altitude Azimuth Distance (km) Brightness Sun altitude
Rises 21:37:01 0° 268° (W) 6,581 12.7 -54.6°
Reaches altitude 10° 21:41:56 10° 259° (W) 5,694 12.1 -55.2°
Enters shadow 21:51:23 28° 231° (SW) 4,366 11.2 -56.3°
